Temperature
3 2 2 2 2 3 3 3 3 3 2 2 1 1 1 1 1 0 0 1 1 2 3 3 3 4 4 5 5 5 5 6 6 6 6 6 6 7 7 7 7 7 7 7
1 1 2 2 2 3 3 3 2 2 2 2 0 0 0 -0 -0 -0 -0 0 1 1 2 3 3 3 4 4 4 4 5 5 5 5 5 6 6 6 6 6 6 6 6 6
2 2 2 2 2 2 2 2 2 1 1 1 0 1 0 -0 -0 -0 -0 0 0 1 1 2 3 3 3 3 4 4 4 4 4 4 5 5 5 5 5 5 5 5 5 5
1 1 2 2 2 1 2 2 1 1 0 -0 0 1 0 -1 -1 -1 -1 -1 -1 -0 0 1 2 2 2 3 3 3 3 3 3 4 4 4 4 4 5 5 5 5 5 5
1 1 1 1 1 1 1 1 0 0 -0 -1 -1 -1 -0 -1 -1 -1 -2 -1 -1 -1 -0 0 1 1 2 2 2 2 3 3 3 3 3 3 4 4 4 4 4 4 4 4
0 0 0 0 1 1 -0 -0 -1 -2 -2 -1 -2 -1 -1 -2 -1 -2 -2 -2 -1 -1 -1 -0 -0 0 1 1 2 2 2 2 2 2 3 3 3 3 3 3 3 3 3 3
-0 -0 -0 -0 -0 -0 -1 -1 -1 -1 -2 -1 -2 -2 -1 -2 -3 -3 -3 -2 -2 -1 -1 -1 -1 -0 0 1 1 1 1 1 2 2 2 2 2 2 2 2 2 2 3 3
-1 -0 -1 -1 -1 -1 -2 -1 -1 -1 -1 -2 -3 -3 -2 -3 -3 -3 -3 -2 -2 -2 -2 -2 -1 -1 -1 -0 -0 0 0 1 1 1 1 1 1 1 1 2 2 2 2 2
-2 -1 -1 -1 -1 -1 -2 -2 -2 -3 -4 -4 -3 -3 -3 -3 -4 -4 -3 -3 -3 -3 -2 -2 -2 -1 -1 -1 -1 -1 -0 -0 0 0 0 0 1 1 1 1 1 1 1 1
-2 -2 -2 -2 -1 -1 -2 -3 -4 -3 -3 -3 -3 -3 -2 -3 -3 -4 -4 -4 -3 -3 -3 -3 -2 -2 -2 -2 -1 -1 -1 -1 -1 -0 -0 -0 -0 0 0 0 0 1 1 1
-3 -3 -3 -3 -3 -3 -3 -3 -4 -4 -4 -3 -3 -2 -3 -3 -4 -5 -5 -4 -4 -4 -3 -3 -3 -3 -3 -2 -2 -2 -1 -1 -1 -1 -1 -1 -1 -1 -1 -1 -0 -0 -0 -0
-3 -4 -4 -4 -3 -3 -4 -4 -4 -3 -4 -5 -4 -3 -3 -5 -5 -5 -5 -4 -4 -3 -3 -3 -3 -3 -3 -3 -3 -2 -2 -2 -2 -2 -1 -1 -1 -1 -1 -1 -1 -1 -1 -1
-4 -4 -3 -2 -3 -5 -5 -5 -5 -5 -5 -5 -5 -2 -4 -6 -6 -5 -5 -4 -4 -4 -4 -4 -4 -4 -4 -4 -3 -3 -3 -3 -3 -2 -2 -2 -2 -2 -2 -2 -2 -2 -2 -1
-3 -4 -3 -2 -2 -4 -5 -5 -6 -5 -5 -5 -5 -3 -3 -5 -6 -6 -5 -4 -4 -4 -4 -4 -4 -4 -4 -4 -4 -4 -4 -4 -3 -3 -3 -3 -3 -3 -2 -2 -2 -2 -2 -2
-4 -4 -5 -5 -4 -5 -5 -4 -5 -6 -5 -4 -4 -4 -4 -5 -6 -5 -5 -5 -5 -5 -5 -5 -5 -5 -5 -5 -5 -5 -5 -4 -4 -4 -4 -4 -3 -3 -3 -3 -3 -3 -3 -3
-5 -5 -5 -5 -5 -5 -5 -4 -5 -5 -5 -5 -5 -4 -5 -5 -6 -6 -6 -6 -6 -6 -6 -6 -6 -5 -5 -5 -5 -5 -5 -5 -5 -5 -4 -4 -4 -4 -4 -4 -4 -4 -4 -4
-7 -6 -5 -5 -6 -5 -5 -5 -5 -6 -6 -6 -5 -4 -6 -7 -7 -7 -7 -6 -6 -6 -6 -6 -6 -6 -6 -6 -6 -6 -6 -5 -5 -5 -5 -5 -5 -5 -4 -4 -4 -4 -4 -4
-7 -7 -6 -6 -6 -5 -4 -6 -6 -6 -6 -7 -7 -7 -7 -7 -7 -6 -6 -6 -6 -6 -6 -6 -6 -6 -6 -6 -6 -6 -6 -6 -6 -6 -6 -6 -5 -5 -5 -5 -5 -5 -5 -5
-7 -6 -6 -6 -6 -6 -5 -6 -7 -7 -7 -8 -8 -7 -7 -8 -8 -7 -6 -6 -7 -7 -7 -7 -7 -7 -7 -7 -7 -7 -6 -6 -6 -6 -6 -6 -6 -6 -6 -6 -5 -5 -5 -5
-8 -7 -7 -7 -6 -5 -4 -7 -8 -7 -6 -7 -8 -8 -8 -9 -8 -7 -6 -7 -7 -7 -7 -7 -7 -7 -7 -7 -7 -7 -7 -7 -7 -7 -7 -7 -7 -7 -6 -6 -6 -6 -6 -6
-8 -8 -7 -7 -7 -6 -7 -8 -8 -6 -5 -7 -8 -8 -9 -9 -8 -7 -7 -7 -7 -8 -8 -8 -8 -8 -8 -8 -8 -8 -8 -8 -7 -8 -7 -7 -7 -7 -7 -7 -7 -7 -7 -7
-8 -8 -8 -8 -7 -6 -8 -9 -7 -7 -7 -7 -7 -7 -8 -8 -8 -8 -8 -8 -8 -8 -8 -8 -8 -8 -8 -8 -8 -8 -8 -8 -8 -8 -8 -8 -8 -8 -8 -7 -7 -7 -7 -7
-9 -8 -8 -7 -6 -7 -8 -8 -7 -7 -8 -7 -8 -8 -8 -8 -9 -8 -8 -8 -8 -9 -9 -9 -9 -9 -9 -9 -9 -9 -9 -9 -9 -9 -8 -8 -8 -8 -8 -8 -8 -8 -8 -8
-10 -11 -10 -10 -9 -9 -9 -8 -8 -8 -8 -8 -8 -8 -8 -9 -9 -9 -9 -9 -9 -9 -9 -9 -9 -9 -9 -9 -9 -9 -9 -9 -9 -9 -9 -9 -9 -8 -8 -8 -8 -8 -8 -8
-10 -12 -11 -10 -10 -10 -9 -8 -8 -8 -9 -9 -9 -9 -9 -9 -9 -9 -10 -10 -10 -10 -10 -10 -10 -10 -10 -10 -10 -10 -10 -10 -10 -10 -9 -9 -9 -9 -9 -9 -9 -9 -9 -9
-12 -12 -11 -9 -10 -10 -9 -8 -9 -9 -9 -9 -9 -9 -9 -10 -10 -10 -10 -10 -10 -10 -10 -10 -10 -10 -10 -10 -10 -10 -10 -10 -10 -10 -10 -10 -10 -10 -10 -10 -9 -9 -9 -9
Wind_Speed
5 5 1 3 3 2 2 3 5 4 2 2 6 8 7 4 3 4 4 4 4 4 5 4 3 3 3 3 2 1 1 1 0 1 1 1 2 1 1 2 2 3 3 4
5 2 3 2 1 1 1 3 4 4 3 2 5 8 6 3 2 3 4 4 4 5 6 6 5 4 4 3 3 1 1 1 1 1 2 1 2 2 1 2 2 3 3 3
3 2 2 2 2 2 2 3 4 4 5 3 4 7 4 2 2 2 2 3 3 3 4 6 5 4 4 4 3 2 1 1 1 1 1 1 2 1 1 1 1 1 2 2
0 3 2 1 1 0 4 3 3 3 2 4 2 5 5 3 3 4 4 3 4 4 4 4 5 5 4 4 3 2 2 1 0 2 2 2 2 2 2 2 2 1 2 2
2 2 2 1 2 1 3 3 2 1 1 3 1 3 7 2 4 5 5 4 4 4 4 4 5 5 5 4 3 2 2 2 1 1 3 3 2 1 1 1 2 2 1 2
2 1 0 2 2 0 1 3 3 3 2 3 4 4 6 3 4 4 3 4 4 4 4 4 5 5 5 5 4 3 3 2 1 1 1 3 3 2 1 2 2 1 1 1
4 2 2 1 2 3 3 4 4 5 2 5 2 4 7 5 3 3 3 4 4 4 3 4 5 6 6 6 5 4 3 3 2 1 1 1 4 4 3 3 3 2 1 1
2 5 2 1 2 2 2 4 4 4 5 5 2 6 6 4 3 3 3 3 3 4 4 4 5 5 5 5 4 3 3 3 3 1 1 1 1 3 3 3 3 3 3 2
3 5 2 1 1 3 3 2 3 3 1 4 6 6 7 4 4 3 3 3 4 5 5 4 4 5 5 5 4 2 2 3 3 2 1 1 1 1 2 3 3 3 2 2
4 4 4 3 1 1 2 4 4 3 2 5 6 5 5 6 6 4 3 4 5 5 5 5 4 4 4 4 4 3 2 2 3 2 1 1 2 1 1 2 2 2 2 2
3 3 4 2 4 5 2 2 3 3 3 4 5 6 4 6 4 4 4 4 4 5 5 4 4 4 4 4 4 4 3 3 3 3 2 2 2 2 2 2 2 2 2 3
3 3 4 6 3 1 4 5 5 4 5 4 4 8 3 3 3 3 4 4 5 5 4 4 4 4 4 4 4 4 4 4 4 3 3 2 2 2 2 2 2 2 2 2
4 3 2 5 2 1 2 3 4 3 3 4 5 8 2 2 3 3 4 5 6 6 5 4 4 4 4 4 4 4 4 4 4 3 3 3 2 2 2 2 2 2 2 2
3 4 6 9 6 4 4 5 5 5 5 6 10 13 9 6 6 6 6 6 5 5 4 4 4 4 4 4 4 4 4 4 3 3 3 4 3 3 3 2 2 2 2 2
3 4 6 8 7 4 7 7 7 10 10 11 11 12 14 9 7 7 6 5 5 5 5 4 4 4 4 4 4 4 4 4 3 3 3 4 4 4 3 2 2 2 1 2
2 3 3 6 5 6 8 10 10 12 11 13 14 16 10 7 4 5 5 5 6 6 6 5 5 5 5 5 5 5 5 4 4 3 4 4 4 3 3 3 2 2 2 2
3 3 2 6 4 4 9 10 12 8 8 8 14 14 7 6 6 6 6 6 7 7 6 5 5 5 5 5 5 5 5 5 4 3 4 4 4 4 4 3 2 2 2 2
5 4 3 3 1 8 8 3 6 9 10 10 9 8 7 7 6 6 5 6 6 6 5 5 4 4 5 4 5 5 5 4 4 4 4 4 4 4 4 3 3 3 2 2
5 5 3 2 5 10 7 3 4 5 8 7 10 10 7 5 3 4 4 4 5 6 5 4 4 4 4 4 4 4 5 4 4 4 4 4 4 4 4 3 3 3 2 3
1 3 4 4 5 7 7 2 1 2 6 4 5 7 5 0 3 6 3 3 4 4 4 3 3 3 4 4 4 3 4 4 5 6 5 5 4 4 5 4 3 3 3 3
2 2 6 7 8 9 5 1 4 3 7 3 3 5 4 5 6 5 4 3 3 3 4 3 3 3 4 4 3 4 4 5 6 6 6 5 4 4 4 3 3 2 2 2
7 6 6 5 6 9 3 5 6 7 3 2 3 4 4 5 5 5 4 4 3 4 4 3 3 4 4 3 3 4 5 6 5 5 5 5 4 4 3 2 2 2 2 2
8 8 6 9 8 4 4 6 4 1 3 3 3 4 3 4 5 5 4 4 4 4 4 4 4 5 4 3 3 5 6 5 5 5 5 5 4 3 2 2 2 2 2 2
4 2 4 5 8 6 5 5 4 3 4 4 4 4 3 5 6 5 5 4 4 4 4 3 3 4 5 5 4 5 5 4 4 4 4 4 3 3 2 2 2 2 2 2
5 4 4 6 6 5 5 5 6 5 4 4 4 4 5 5 6 5 5 5 4 4 4 3 4 5 6 5 5 5 4 3 3 4 4 3 3 3 2 2 2 3 3 3
4 5 6 7 5 4 6 4 4 5 5 5 5 5 4 4 5 5 5 4 4 4 4 4 4 5 5 5 5 5 4 3 3 3 3 3 2 2 2 2 3 4 4 6
Wind_Direction
27 59 28 270 239 253 233 248 271 274 304 292 262 273 285 292 316 313 306 308 313 314 329 348 359 360 359 4 350 319 359 2 88 157 151 171 182 173 103 65 85 108 119 127
44 8 286 298 345 354 310 288 291 306 327 277 278 276 274 271 267 280 282 292 309 331 346 349 358 7 5 359 353 346 313 261 219 202 190 194 192 179 157 89 75 95 110 130
144 270 317 39 25 351 283 254 276 290 328 332 313 293 271 282 264 308 302 300 320 321 328 337 347 353 358 355 348 335 320 275 232 168 111 94 83 85 80 109 101 69 111 125
8 310 351 16 337 260 272 286 278 285 324 303 357 295 283 282 300 312 307 317 314 319 323 335 343 350 347 336 340 348 341 349 240 158 140 139 149 182 204 196 179 104 110 119
299 334 353 306 298 229 247 323 312 269 208 302 299 248 288 315 293 293 293 296 313 325 333 337 342 344 348 345 349 359 6 4 23 113 167 165 167 190 180 142 144 150 112 119
278 293 283 259 325 355 329 27 35 43 81 276 235 203 280 252 252 288 300 309 315 325 339 346 350 355 357 359 7 12 18 3 9 41 142 179 176 178 150 148 161 177 173 132
325 318 346 33 36 22 52 67 9 348 341 257 226 209 253 255 245 235 265 294 321 331 341 350 354 357 355 356 358 4 12 358 356 20 32 221 199 192 193 195 190 189 196 224
308 291 283 356 167 193 198 142 165 229 254 286 290 239 255 261 265 265 268 286 327 335 337 342 345 346 347 347 347 355 355 352 351 350 322 329 240 209 208 210 199 198 206 213
199 262 323 331 308 147 146 189 174 148 269 280 271 284 297 294 300 302 312 323 317 317 322 327 337 342 342 341 336 325 337 342 347 335 328 322 324 257 223 214 203 194 196 206
169 255 282 303 21 3 152 151 116 147 225 268 284 274 265 278 276 292 306 306 307 316 319 322 329 334 337 335 334 335 337 330 329 331 315 316 302 308 269 225 219 207 204 200
153 200 294 328 205 208 147 151 160 165 186 205 270 268 235 237 242 248 264 286 296 303 305 314 323 329 333 345 350 349 343 343 339 335 321 319 322 325 316 262 244 226 219 209
172 160 256 253 246 197 185 192 169 187 237 213 235 267 266 230 242 247 272 294 299 300 305 312 320 329 338 348 352 351 346 340 332 329 326 319 321 322 308 299 277 247 229 223
153 149 305 325 329 347 239 218 201 187 177 201 223 265 299 322 304 287 286 296 304 312 319 327 331 333 332 336 339 341 340 336 336 340 338 331 327 319 309 298 303 279 238 232
154 178 205 233 244 203 233 230 200 180 209 235 235 257 279 293 294 291 286 285 291 301 306 318 324 325 327 330 332 330 329 329 329 334 329 317 306 300 294 286 283 282 252 228
141 220 238 257 265 242 238 238 213 211 220 232 252 253 265 271 269 271 273 281 290 295 301 307 311 315 322 329 331 331 325 326 326 324 312 300 300 301 301 293 282 274 266 236
158 220 239 269 266 258 263 252 233 232 236 244 261 269 267 275 275 277 275 272 276 280 286 297 304 310 314 319 321 322 318 320 322 311 301 304 306 307 306 290 285 284 276 261
182 181 214 265 288 305 266 240 225 230 227 220 243 257 278 282 271 263 262 259 266 273 282 287 293 296 304 308 309 309 310 314 314 304 304 308 306 302 299 292 293 287 277 275
178 186 211 267 346 254 252 206 210 230 245 229 245 270 274 271 275 262 245 244 263 271 275 281 287 296 304 306 310 311 316 315 308 305 305 304 303 297 297 287 285 284 284 260
198 188 200 213 252 271 281 241 188 216 264 232 243 264 278 303 310 281 256 244 249 259 268 271 276 285 297 304 309 315 320 321 309 299 297 299 296 293 291 278 277 281 278 273
137 184 198 204 233 252 258 237 174 124 277 254 229 254 265 325 290 281 296 285 277 283 286 285 293 297 296 300 309 311 310 313 306 301 298 295 288 282 279 269 272 277 269 271
158 190 212 222 239 261 257 190 128 180 260 289 231 241 224 220 243 275 296 296 287 293 295 296 297 292 288 296 305 299 300 295 297 302 300 298 292 283 280 278 270 262 264 268
187 189 204 193 226 254 199 146 190 229 283 282 259 243 232 247 267 278 280 282 293 301 302 301 296 294 298 296 288 290 288 293 303 304 303 302 300 293 289 283 281 269 250 246
204 200 199 203 223 251 184 204 235 278 270 273 264 263 243 257 269 279 279 279 282 284 288 293 290 296 303 297 280 280 289 301 307 308 305 303 301 298 292 271 273 275 265 254
238 214 209 246 259 260 248 249 270 262 257 273 269 268 253 257 268 275 279 283 283 282 280 286 290 293 298 301 293 280 290 297 297 298 301 302 301 302 304 288 270 257 255 253
223 183 213 249 275 300 270 248 257 268 273 285 289 274 260 259 270 270 276 279 279 285 288 282 277 281 289 299 297 296 297 295 294 296 300 301 297 292 301 295 270 259 250 249
202 189 202 240 240 237 268 274 263 260 270 275 281 291 288 266 270 276 280 282 284 288 293 295 292 290 294 301 301 305 306 293 286 295 301 300 301 296 294 298 304 290 278 278
Height
1501 1505 1509 1509 1509 1508 1508 1508 1508 1506 1505 1506 1505 1502 1500 1499 1498 1496 1495 1494 1493 1493 1493 1492 1492 1491 1491 1491 1492 1493 1493 1494 1496 1497 1498 1500 1502 1504 1506 1508 1509 1511 1513 1515
1507 1511 1509 1508 1508 1507 1507 1508 1509 1507 1505 1505 1505 1501 1498 1496 1496 1495 1494 1493 1492 1491 1490 1489 1489 1489 1489 1488 1489 1489 1491 1492 1493 1494 1495 1497 1499 1501 1502 1504 1506 1508 1510 1512
1510 1512 1508 1508 1509 1508 1508 1510 1510 1509 1508 1506 1506 1499 1496 1495 1494 1493 1492 1491 1490 1489 1488 1487 1487 1487 1486 1486 1486 1487 1488 1489 1490 1491 1493 1495 1496 1497 1499 1500 1502 1504 1506 1508
1511 1510 1509 1509 1509 1510 1509 1508 1508 1508 1512 1512 1510 1507 1496 1495 1493 1491 1490 1489 1488 1487 1486 1485 1485 1484 1485 1485 1485 1485 1485 1486 1488 1488 1489 1490 1491 1493 1494 1496 1498 1500 1502 1504
1512 1511 1510 1510 1509 1510 1510 1509 1509 1509 1512 1516 1514 1513 1499 1496 1493 1490 1489 1488 1487 1486 1485 1484 1484 1483 1484 1484 1483 1483 1483 1483 1484 1485 1486 1487 1488 1489 1492 1493 1494 1496 1499 1501
1512 1511 1511 1510 1509 1509 1510 1511 1512 1515 1516 1518 1514 1515 1502 1497 1492 1490 1489 1487 1486 1485 1484 1483 1483 1482 1482 1482 1481 1481 1481 1481 1481 1482 1483 1483 1484 1486 1488 1489 1490 1492 1494 1496
1514 1512 1510 1510 1510 1511 1512 1517 1522 1522 1524 1517 1512 1511 1501 1492 1490 1489 1488 1487 1486 1485 1483 1482 1481 1480 1480 1480 1479 1479 1479 1479 1479 1479 1480 1481 1482 1483 1484 1485 1487 1488 1490 1491
1518 1516 1512 1511 1511 1514 1515 1517 1523 1524 1523 1517 1514 1510 1496 1490 1488 1487 1486 1485 1484 1483 1482 1481 1481 1480 1479 1478 1478 1477 1477 1477 1477 1477 1477 1478 1479 1480 1481 1482 1483 1484 1486 1488
1519 1516 1512 1511 1510 1512 1515 1519 1519 1526 1530 1529 1515 1507 1495 1488 1486 1485 1484 1483 1482 1482 1481 1480 1479 1478 1477 1476 1476 1475 1475 1474 1474 1474 1474 1474 1475 1476 1477 1478 1480 1481 1482 1484
1515 1518 1514 1512 1511 1512 1513 1516 1523 1524 1524 1522 1512 1508 1497 1488 1485 1484 1484 1482 1481 1481 1480 1479 1478 1477 1476 1475 1474 1473 1473 1472 1472 1472 1472 1472 1473 1473 1474 1475 1476 1477 1479 1480
1514 1518 1517 1515 1514 1513 1515 1518 1518 1522 1522 1521 1517 1501 1487 1485 1483 1484 1482 1482 1481 1480 1478 1477 1476 1475 1474 1473 1472 1471 1470 1470 1469 1469 1469 1469 1469 1470 1470 1471 1472 1473 1474 1475
1513 1517 1519 1515 1512 1511 1512 1513 1516 1517 1519 1523 1518 1499 1482 1482 1481 1481 1480 1480 1479 1478 1477 1475 1474 1473 1472 1470 1470 1469 1468 1467 1467 1467 1467 1467 1467 1467 1467 1467 1468 1469 1470 1470
1512 1516 1517 1510 1514 1515 1513 1512 1513 1514 1515 1519 1515 1495 1481 1481 1479 1479 1479 1478 1477 1476 1474 1473 1472 1471 1469 1468 1467 1466 1465 1465 1464 1464 1463 1463 1463 1463 1463 1463 1464 1465 1465 1466
1506 1512 1511 1506 1502 1507 1510 1509 1510 1512 1512 1511 1503 1488 1481 1480 1479 1478 1477 1476 1475 1474 1473 1471 1470 1469 1467 1466 1465 1464 1463 1463 1462 1461 1461 1460 1460 1460 1459 1460 1460 1461 1461 1462
1505 1509 1509 1505 1503 1505 1503 1502 1504 1505 1500 1498 1488 1487 1477 1477 1477 1475 1474 1473 1472 1471 1470 1469 1468 1466 1465 1464 1463 1462 1460 1460 1459 1458 1458 1457 1457 1456 1456 1456 1456 1457 1457 1458
1505 1507 1508 1505 1502 1503 1500 1495 1496 1496 1494 1491 1486 1479 1473 1473 1474 1472 1471 1470 1469 1468 1467 1466 1465 1464 1463 1462 1460 1459 1458 1457 1456 1455 1455 1454 1453 1453 1452 1452 1453 1453 1453 1454
1506 1507 1506 1503 1504 1500 1495 1487 1487 1488 1485 1485 1480 1473 1471 1471 1470 1469 1468 1467 1466 1466 1465 1464 1463 1462 1460 1459 1458 1456 1455 1454 1453 1452 1451 1450 1450 1449 1448 1449 1449 1449 1449 1450
1502 1504 1505 1504 1505 1499 1479 1479 1478 1479 1477 1477 1473 1470 1468 1468 1466 1465 1465 1464 1463 1463 1462 1461 1460 1459 1458 1457 1455 1454 1452 1451 1449 1448 1448 1447 1446 1445 1445 1445 1445 1445 1445 1446
1496 1499 1503 1504 1502 1490 1478 1476 1478 1478 1473 1469 1469 1466 1466 1465 1464 1461 1461 1461 1460 1460 1459 1458 1457 1456 1455 1454 1452 1451 1449 1447 1446 1445 1444 1443 1442 1442 1441 1441 1441 1441 1442 1442
1496 1497 1500 1501 1497 1490 1473 1474 1473 1476 1472 1464 1464 1464 1464 1465 1465 1459 1457 1457 1457 1457 1456 1455 1453 1453 1452 1450 1449 1447 1445 1444 1442 1441 1440 1440 1439 1438 1437 1437 1438 1438 1438 1438
1497 1498 1498 1496 1493 1481 1473 1472 1473 1477 1466 1462 1460 1460 1461 1461 1460 1457 1455 1455 1454 1454 1453 1452 1450 1449 1448 1447 1445 1444 1442 1441 1439 1438 1437 1436 1435 1434 1433 1433 1433 1434 1434 1434
1489 1492 1493 1493 1491 1478 1469 1470 1470 1465 1461 1459 1458 1457 1457 1456 1455 1454 1453 1452 1451 1450 1449 1448 1447 1446 1445 1444 1442 1440 1439 1438 1436 1435 1433 1432 1431 1430 1430 1429 1429 1429 1429 1429
1482 1478 1477 1476 1470 1464 1463 1461 1460 1460 1459 1457 1456 1455 1454 1453 1452 1451 1450 1449 1448 1447 1446 1445 1443 1442 1441 1440 1438 1437 1435 1434 1433 1431 1430 1429 1428 1427 1427 1426 1425 1425 1425 1424
1475 1474 1474 1472 1463 1461 1460 1458 1458 1457 1456 1455 1454 1453 1452 1450 1449 1448 1446 1445 1444 1443 1442 1441 1440 1438 1437 1436 1435 1433 1432 1430 1429 1428 1426 1425 1424 1423 1423 1423 1422 1422 1421 1421
1468 1470 1470 1466 1460 1458 1455 1455 1454 1454 1453 1452 1451 1450 1449 1447 1446 1445 1443 1442 1441 1440 1439 1437 1436 1434 1433 1432 1431 1430 1428 1427 1425 1424 1423 1422 1421 1420 1419 1419 1419 1418 1418 1418
1464 1465 1465 1458 1456 1456 1452 1451 1451 1450 1449 1448 1447 1446 1445 1444 1442 1441 1440 1439 1438 1436 1435 1433 1432 1431 1429 1428 1427 1426 1425 1423 1422 1420 1420 1419 1418 1417 1416 1415 1415 1414 1414 1414